Probability
12 13 16 15 8 2 0 0 0 0 0 0 0 0 0 0 0 0 0 0 1 2 3 2 1 1 0 0 0 0 0 0 0 0 0 0 0 0 0 0 0 0 0 0 0 0 0 0 0
8 9 11 9 4 1 0 0 0 0 0 0 0 0 0 0 0 0 0 0 1 2 3 3 2 2 1 0 0 0 0 0 0 0 0 0 0 0 0 0 0 0 0 0 0 0 0 0 0
7 7 6 3 1 0 0 0 0 0 0 0 0 0 1 1 1 0 0 0 1 3 3 3 3 3 2 0 0 0 0 0 0 0 0 0 0 0 0 0 0 0 0 0 0 0 0 0 0
7 6 4 1 0 0 0 0 0 0 0 0 0 1 2 2 1 0 0 0 1 2 3 3 3 2 1 0 0 0 0 0 0 0 0 0 0 0 0 0 0 0 0 0 0 0 0 0 0
4 4 2 0 0 0 0 0 0 0 0 0 0 1 2 2 1 0 0 0 1 1 2 2 2 2 1 0 0 0 0 0 0 0 0 0 0 0 0 0 0 0 0 0 0 0 0 0 0
1 1 0 0 0 0 0 0 0 0 0 0 0 0 1 1 1 0 0 0 0 1 2 3 3 2 1 0 0 0 0 0 0 0 0 0 0 0 0 0 0 0 0 0 0 0 0 0 0
0 0 0 0 0 0 0 0 0 0 1 1 0 1 3 4 3 1 0 0 1 1 3 5 5 2 0 0 0 0 0 0 0 0 0 0 0 0 0 0 0 0 0 0 0 0 0 0 0
0 0 0 0 0 0 0 0 0 1 2 2 1 3 6 8 6 2 0 1 2 3 4 5 5 3 1 0 0 0 0 0 0 0 0 0 0 0 0 0 0 0 0 0 0 0 0 0 0
0 0 0 0 0 0 0 0 0 1 3 4 4 6 11 14 10 5 2 2 3 5 5 5 4 3 1 0 0 0 0 0 0 0 0 0 0 0 0 0 0 0 0 0 0 0 0 0 0
0 0 0 0 0 0 0 0 0 1 4 6 7 11 17 19 12 7 5 3 5 6 6 4 3 2 0 0 0 0 0 0 0 0 0 0 0 0 0 0 0 0 0 0 0 0 0 0 0
0 0 0 0 0 0 0 0 1 2 4 6 10 18 25 23 13 6 4 4 6 7 5 4 4 3 1 0 0 0 0 0 0 0 0 0 0 0 0 0 0 0 0 0 0 0 0 0 0
0 0 0 0 0 0 0 1 2 4 5 7 13 23 28 23 12 5 3 4 6 7 6 5 5 4 1 0 0 0 0 0 0 0 0 0 0 0 0 0 0 0 0 0 0 0 0 0 0
0 0 0 0 0 1 0 1 4 6 7 10 16 23 25 21 12 6 4 5 8 9 8 7 7 5 2 1 1 1 1 1 0 0 0 0 0 0 0 0 0 0 0 0 0 0 0 0 0
0 0 0 0 0 0 0 2 4 5 7 11 16 20 21 19 14 8 6 7 9 11 10 9 8 5 2 1 2 2 2 2 1 0 0 0 0 0 0 0 0 0 0 0 0 0 0 0 0
0 0 0 0 0 0 1 3 5 5 6 10 12 14 18 18 15 10 8 9 11 11 11 10 9 6 3 1 1 2 2 2 2 1 0 0 0 0 0 0 0 0 0 0 0 0 0 0 0
0 0 0 0 0 0 1 4 7 7 7 9 9 10 14 17 15 11 10 12 13 13 13 12 10 8 5 2 1 1 1 1 1 1 1 0 0 0 0 0 0 0 0 0 0 0 0 0 0
0 0 0 0 0 0 1 3 6 7 8 8 7 7 11 15 14 11 11 13 16 18 18 17 15 13 9 5 3 2 1 0 0 1 1 0 0 0 0 0 0 0 0 0 0 0 0 0 0
0 0 0 0 0 0 0 1 4 5 6 7 6 6 9 12 13 11 10 12 18 23 24 22 22 20 15 9 6 5 2 1 0 1 1 2 2 2 1 1 0 1 1 0 0 0 0 0 0
0 0 0 0 0 0 0 0 1 3 4 5 6 6 8 12 14 15 13 14 18 24 27 27 27 26 21 15 12 9 4 1 1 2 3 4 4 4 3 2 2 2 2 1 1 1 1 1 1
0 0 0 0 0 0 0 0 0 1 3 4 6 7 8 13 19 22 21 17 17 20 25 28 29 29 25 20 17 13 8 5 3 3 4 5 5 4 4 3 3 3 3 3 5 5 5 5 4
0 0 0 0 0 0 0 0 0 0 1 3 5 7 8 12 20 26 27 22 17 17 20 25 30 31 29 26 21 17 15 12 9 6 5 5 4 4 3 3 4 4 3 5 7 9 9 9 9
0 0 0 0 0 0 0 0 0 0 0 3 6 8 9 10 15 22 25 23 18 16 19 25 31 34 34 32 28 24 22 20 14 9 7 7 5 4 4 5 6 6 6 6 9 11 12 13 14
0 0 0 0 0 0 0 0 0 0 0 2 6 9 10 8 10 15 17 18 16 15 20 27 34 37 37 35 32 30 28 24 17 11 10 10 8 6 6 7 9 9 9 10 12 14 13 15 17
0 0 0 0 0 0 0 0 0 0 0 1 4 7 7 6 8 11 13 14 14 15 21 30 39 43 41 38 35 31 27 24 18 14 12 13 11 9 8 8 8 9 10 13 15 15 13 15 17
0 0 0 0 0 0 0 0 0 0 0 0 2 5 6 6 8 12 14 16 16 17 22 31 40 46 44 40 35 29 24 21 19 15 14 14 13 11 9 7 5 6 8 11 13 13 11 12 14
0 0 0 0 0 0 0 0 0 0 0 0 2 6 8 8 9 12 16 18 18 20 25 30 37 42 41 38 35 30 24 19 16 15 13 13 12 10 7 6 4 5 7 9 10 11 10 10 11
0 0 0 0 0 0 0 0 0 0 0 0 2 7 11 12 11 13 17 17 18 21 26 29 34 37 37 36 35 33 25 17 13 13 13 12 11 8 6 5 5 6 7 9 10 11 11 10 10
0 0 0 0 0 0 0 0 0 0 0 0 3 9 15 17 18 20 22 20 19 22 25 29 34 37 37 36 35 32 26 17 13 12 13 13 12 10 7 6 6 7 8 10 11 11 11 9 8
0 0 0 0 0 0 0 0 0 0 0 0 3 10 17 20 23 27 29 27 25 24 25 29 35 38 36 34 34 31 25 19 15 14 15 15 13 12 10 9 8 8 8 10 12 11 8 6 5
0 0 0 0 0 0 0 0 0 0 0 0 3 10 17 21 24 27 32 34 31 29 27 30 35 35 32 33 34 30 24 19 16 16 17 16 14 12 12 11 10 9 7 10 12 11 7 4 2
Wind_Speed
10 9 7 6 3 9 14 12 10 9 7 8 7 6 8 9 8 11 11 12 12 12 13 12 10 11 11 11 11 11 12 12 11 11 11 11 11 11 11 10 10 10 11 11 11 11 11 12 12
7 6 7 5 5 11 14 11 11 11 9 7 7 7 9 10 9 11 11 11 12 12 12 12 12 11 11 11 11 11 11 11 10 10 10 10 10 10 10 10 10 10 10 10 11 11 12 12 12
7 7 6 3 11 13 13 11 11 9 7 5 6 7 8 9 9 9 12 13 12 11 11 13 12 11 11 10 10 10 11 10 10 10 10 10 10 10 10 9 9 10 10 10 11 11 12 12 12
6 6 3 8 15 13 11 9 8 8 8 6 8 10 9 7 6 10 14 13 12 12 11 14 11 11 10 10 10 10 10 9 9 9 9 9 9 9 10 9 9 10 10 10 10 11 11 11 11
6 3 6 12 14 11 9 8 5 6 6 6 7 11 10 7 10 14 13 12 12 11 11 14 11 11 10 10 10 9 9 9 8 8 9 9 9 9 9 9 9 9 10 10 10 11 11 11 10
4 1 8 12 13 9 8 6 6 8 9 9 9 11 9 8 11 12 12 11 11 11 11 13 12 10 9 9 9 9 9 9 8 8 8 9 9 9 9 9 9 9 10 10 10 10 10 10 10
3 5 10 11 10 9 7 5 6 7 9 8 7 9 10 10 11 11 11 10 10 10 10 10 12 11 10 9 8 8 8 8 7 7 8 8 8 9 9 9 9 9 9 9 9 9 10 10 9
4 1 10 10 9 10 7 5 5 6 8 8 4 7 10 13 12 11 10 10 8 8 8 9 8 8 9 10 9 8 7 7 7 7 8 8 9 9 9 9 9 9 9 9 9 8 9 10 9
4 3 10 10 8 7 6 6 6 6 9 6 4 6 13 17 14 12 11 10 9 8 7 7 8 7 6 7 10 8 8 7 7 7 7 6 6 8 8 9 9 8 9 9 8 8 8 9 9
3 7 10 7 6 5 5 5 6 7 8 8 9 12 16 16 15 14 12 12 11 10 8 6 6 7 6 5 6 5 6 6 5 5 6 4 4 3 5 9 7 7 8 8 8 8 8 7 7
4 7 6 5 5 4 5 5 5 5 5 7 12 16 17 16 14 12 11 10 10 10 8 8 7 5 5 4 4 3 3 3 4 5 4 3 4 4 4 5 6 6 7 6 8 8 5 4 4
3 5 4 3 3 3 4 5 5 3 6 7 12 16 17 15 14 12 10 9 9 9 9 8 7 6 4 3 3 3 3 3 3 5 4 4 3 3 3 2 3 4 3 3 3 3 3 3 4
2 3 3 3 2 3 4 4 4 5 7 10 13 15 15 14 12 10 9 8 8 8 8 8 7 6 5 4 3 3 3 3 4 3 4 3 3 3 3 2 2 3 3 4 3 3 3 4 4
2 1 2 3 4 4 4 5 4 6 8 11 13 14 14 13 12 11 10 9 9 9 9 8 8 7 6 5 4 2 3 3 3 4 4 4 3 3 3 3 3 2 3 2 3 4 4 4 3
2 3 3 4 2 3 4 6 5 8 10 11 12 12 12 12 12 11 10 10 9 9 9 9 9 8 7 6 6 4 4 4 4 3 4 4 4 3 3 2 3 3 3 4 3 3 3 3 4
6 6 4 4 2 3 7 4 8 9 10 11 11 11 11 11 11 10 10 9 9 9 9 9 8 8 8 6 5 4 4 3 3 3 4 5 4 4 3 3 3 3 3 4 4 4 3 3 3
7 4 1 4 3 3 5 2 8 9 10 10 11 11 11 11 11 10 10 10 9 9 9 9 8 8 8 7 5 5 4 3 3 3 4 4 5 5 4 3 2 4 4 4 4 4 3 3 3
3 3 2 2 3 5 5 2 6 8 9 9 10 10 11 11 11 10 10 9 9 9 9 9 9 8 7 6 6 5 4 4 4 4 4 5 5 6 5 4 4 5 4 4 4 3 3 3 3
3 4 2 1 1 4 4 4 4 8 9 9 10 10 11 11 10 10 10 10 10 9 10 10 9 8 7 6 6 6 5 5 5 5 5 6 6 6 6 5 4 5 4 5 5 5 5 4 3
6 6 4 3 2 4 3 4 4 7 9 9 10 11 11 11 11 10 10 10 10 10 10 10 10 9 9 7 5 4 4 4 4 4 4 6 6 6 6 6 5 6 4 5 6 6 5 4 4
8 7 3 2 3 5 5 6 6 7 8 9 10 10 11 11 11 11 11 11 10 10 11 9 10 10 10 8 6 5 4 4 5 5 5 6 6 7 6 6 6 5 6 5 6 6 7 5 4
7 3 3 4 7 3 4 4 5 7 8 10 11 11 12 12 11 11 11 11 10 10 10 10 9 9 9 9 8 8 6 5 5 4 4 5 6 7 7 7 6 6 6 5 7 7 5 6 5
3 2 3 4 6 6 5 7 2 7 7 9 10 11 12 12 12 12 11 10 10 9 9 9 9 9 9 9 8 8 7 5 4 4 4 5 5 6 7 6 6 6 6 6 7 5 6 6 6
7 6 5 6 8 9 4 7 3 4 4 5 7 9 10 11 12 11 10 9 9 9 9 9 9 9 9 9 9 9 7 6 5 5 4 5 4 4 6 7 6 6 6 6 6 6 7 7 6
10 10 8 9 8 6 3 7 2 2 1 3 4 7 10 11 11 11 11 11 10 9 9 9 10 9 9 9 9 8 7 6 7 6 5 5 4 4 4 5 5 5 6 6 6 7 7 7 7
13 13 9 7 6 4 6 6 1 2 1 2 4 7 10 11 11 12 12 11 10 10 10 9 9 8 8 8 8 7 7 6 4 5 4 4 4 3 3 5 5 6 7 7 6 6 7 6 7
12 12 10 8 7 7 5 4 4 4 4 5 7 9 10 11 11 11 11 11 10 9 9 9 9 8 8 8 7 7 6 5 4 4 5 4 4 4 4 5 5 6 6 7 7 6 7 6 7
8 9 7 10 9 10 7 8 4 5 5 6 8 9 10 11 11 11 11 11 10 9 9 9 8 8 8 8 7 6 5 5 5 5 4 4 4 4 5 5 5 6 6 6 6 6 6 6 6
10 10 10 9 8 9 7 5 2 3 2 4 6 7 9 11 11 11 10 10 10 10 10 9 9 8 8 7 6 5 5 5 5 4 4 4 4 4 5 5 5 5 5 5 4 5 6 7 6
12 13 13 11 9 9 9 3 5 1 1 2 4 6 7 9 10 11 11 11 10 10 10 9 9 9 8 7 7 6 5 5 5 4 4 4 4 4 4 4 5 5 4 4 5 6 6 6 7
Wind_Direction
180 189 216 236 206 73 66 65 69 81 76 70 69 59 60 44 40 85 113 129 131 132 129 135 127 126 120 118 117 116 116 117 118 118 118 120 119 116 114 113 113 112 111 111 112 114 117 117 117
180 196 230 242 56 73 69 65 66 66 87 100 85 80 76 68 68 105 123 131 139 135 135 131 126 126 121 119 118 117 117 117 118 120 119 119 118 118 116 115 114 113 112 113 114 115 117 117 118
191 231 265 62 58 61 69 70 80 89 98 99 90 67 62 81 102 118 129 140 142 131 128 122 132 127 123 119 116 116 116 117 117 118 120 118 119 118 117 115 114 114 113 114 116 117 119 119 120
220 223 225 66 69 63 70 80 95 103 93 89 100 91 81 78 108 124 135 145 138 135 136 125 134 129 125 122 119 118 116 116 116 115 117 119 120 120 120 115 112 111 114 117 118 119 121 122 122
242 258 83 76 71 71 72 77 82 81 87 98 101 102 93 86 113 128 141 143 138 136 131 128 134 130 127 126 124 121 118 115 116 116 117 119 121 121 119 117 115 115 116 119 119 120 120 121 122
251 324 66 72 76 78 82 89 90 85 97 104 109 108 95 118 131 137 141 143 136 135 132 127 133 133 132 131 129 126 123 119 116 115 115 118 119 119 121 120 119 117 117 120 121 121 120 122 124
334 48 67 71 80 83 76 84 89 100 104 103 113 109 118 136 137 141 140 139 139 139 136 139 145 143 140 132 129 128 124 122 122 120 118 119 119 117 120 121 120 119 121 122 122 122 122 125 128
316 58 75 69 66 76 92 98 88 94 95 108 120 123 139 143 144 143 143 143 139 140 139 139 143 137 149 144 136 131 129 130 128 126 124 127 128 126 129 135 122 122 124 123 123 124 126 128 130
276 54 64 57 55 77 107 116 103 108 118 118 97 96 124 139 147 151 152 151 149 151 153 150 145 147 150 143 139 148 145 145 153 143 139 160 148 139 147 115 123 126 126 124 125 127 132 138 139
312 59 60 48 53 78 108 114 129 142 134 127 119 112 129 146 158 163 164 163 163 163 162 156 155 157 157 148 144 158 160 153 165 140 150 149 126 121 116 120 130 130 130 133 129 135 155 178 151
20 51 61 60 61 80 116 124 136 147 129 139 146 144 150 158 166 171 169 170 166 163 166 167 163 168 165 158 159 155 151 148 156 148 149 139 149 147 144 144 149 152 160 153 147 170 174 160 140
51 59 51 57 72 97 108 121 129 118 77 112 142 150 158 166 171 176 174 171 167 168 172 171 166 175 183 175 162 174 174 168 162 151 180 160 159 154 136 155 142 157 152 149 163 160 154 153 154
77 66 55 75 107 108 126 123 111 109 109 125 139 153 164 171 173 174 174 174 175 177 178 175 176 180 180 184 206 183 186 182 167 169 170 179 172 165 151 154 166 174 155 164 176 164 157 165 175
56 89 100 104 110 135 142 128 139 117 130 141 151 161 169 171 172 173 178 182 185 185 184 181 186 187 188 191 201 198 200 188 193 181 172 190 184 164 175 174 178 184 184 171 176 171 176 190 178
203 196 157 128 146 141 183 154 141 133 148 156 162 168 171 176 180 185 186 190 191 189 188 189 190 190 195 201 201 198 211 196 197 186 184 198 202 179 199 193 191 186 178 172 195 188 189 194 189
220 225 196 130 171 172 243 121 126 149 163 167 169 171 177 183 190 192 193 195 195 192 190 194 196 188 193 201 206 206 209 203 207 200 198 203 212 207 216 217 205 182 198 192 185 207 199 195 205
217 229 199 140 171 212 243 126 131 162 175 174 177 178 181 184 194 193 195 194 196 195 193 193 198 196 196 195 206 217 210 217 225 217 215 205 215 213 219 223 205 207 205 210 217 191 210 202 213
218 234 209 187 150 223 233 192 142 173 189 184 183 185 186 191 193 189 192 193 193 194 196 196 196 199 199 198 205 215 218 216 219 218 216 222 223 220 226 221 210 222 212 210 225 213 216 231 228
271 256 232 128 103 238 232 225 176 178 194 191 189 191 192 195 186 182 187 193 192 193 196 199 202 196 199 205 209 206 213 218 219 222 218 221 229 224 222 236 212 226 223 218 215 215 209 215 217
230 233 205 159 129 256 250 233 192 189 201 201 196 193 194 189 182 181 186 191 194 194 198 199 202 201 203 203 212 216 222 229 226 232 222 226 227 229 222 227 230 220 222 221 222 218 230 221 207
221 239 223 191 179 209 254 217 192 184 197 203 207 202 196 191 185 181 188 191 193 196 198 201 203 202 205 203 206 208 213 230 223 221 223 226 228 227 234 231 237 232 227 220 224 222 227 231 224
213 213 231 217 236 213 267 276 166 179 193 199 203 203 201 194 189 184 186 188 194 196 195 198 199 202 202 203 212 217 223 229 233 229 225 228 234 236 231 232 233 236 238 229 230 222 228 234 237
207 146 205 232 250 258 234 274 158 175 202 202 199 199 199 194 190 187 188 189 191 191 190 190 193 200 201 205 210 220 231 235 234 232 231 236 233 236 238 234 232 232 238 235 239 237 233 234 241
159 168 180 228 245 246 252 272 234 174 207 196 184 186 191 191 188 184 184 184 187 187 188 190 189 196 199 203 209 221 233 239 243 238 235 231 224 226 232 234 232 235 240 239 240 243 237 238 243
201 211 216 220 224 233 159 256 268 72 242 233 196 177 177 182 184 181 183 183 186 187 187 187 188 193 196 199 207 218 228 234 236 239 226 232 237 230 229 239 237 242 242 245 245 242 248 241 239
211 226 241 254 246 199 179 240 188 106 195 214 186 165 167 174 178 180 182 182 182 184 184 186 186 189 191 197 202 214 221 227 228 229 244 239 247 250 253 245 242 244 246 246 241 243 239 236 238
207 227 247 253 264 268 223 224 211 172 180 173 168 162 168 172 172 175 176 177 179 181 183 184 183 185 189 195 193 204 211 225 232 229 232 237 239 243 240 244 245 248 250 253 247 243 243 238 237
248 222 218 242 243 247 228 230 216 176 178 170 171 170 169 170 173 172 172 173 174 176 176 179 180 182 185 188 195 192 197 206 220 234 236 245 248 249 251 251 251 254 255 253 249 241 236 236 236
190 209 225 237 249 255 241 213 150 193 183 186 179 172 174 175 174 173 171 170 170 170 170 173 174 178 181 185 189 194 196 200 208 217 226 233 240 239 241 248 254 259 261 258 254 254 245 241 238
223 218 213 224 226 245 265 223 121 185 205 205 188 170 176 179 176 173 170 169 172 173 172 171 173 176 178 178 182 189 195 203 212 210 219 228 235 240 241 247 252 260 265 262 257 258 252 249 245